Upcoming* NOVA Improvements: Earlier this summer, the Minnesota Public Utilities Commission approved revised templates for the Simplified and Standard Interconnection Applications. While these templates are not required and do not change the MN DIP, NOVA Power Portal is being updated to align with these templates by clarifying application questions and simplifying input data fields, which includes removing current redundant inputs. For more information and to view copies of the revised templates, visit the MN PUC web site: mn.gov/puc/activities/economic-analysis/distributed-energy/interconnections/
*These NOVA Power Portal updates will be implemented by the end of 2021.

Distributed Energy Resource Document Library

Browse interconnection resource documents or download a PDF application.

Current Application Queue

APP ID Queue # Qualify Date Process Status DER Type and Size Sub - Fdr - Phs
APP2362 1 9/30/2019 12:53:17 PM Fast Track Interconnected Solar Photovoltaic 22.80 kW 15 - 01 - C
APP2371 2 10/3/2019 9:28:16 AM Fast Track Interconnected Solar Photovoltaic 22.80 kW 3 - 02 - C
APP2442 3 10/14/2019 8:54:05 AM Simplified Interconnected Solar Photovoltaic 4.06 kW 8 - 01 - B
APP2536 4 10/29/2019 1:23:11 PM Simplified Interconnected Solar Photovoltaic 5.52 kW 6 - 05 - C
APP2538 5 10/29/2019 2:59:24 PM Simplified Interconnected Solar Photovoltaic 7.60 kW 10 - 07 - C
APP2381 6 11/4/2019 2:39:08 PM Simplified Interconnected Solar Photovoltaic 3.80 kW 6 - 06 - C
APP2614 7 11/19/2019 8:56:34 AM Simplified Interconnected Solar Photovoltaic 17.60 kW 23 - 02 - C
APP2537 8 11/19/2019 10:25:35 AM Simplified Interconnected Solar Photovoltaic 5.60 kW 22 - 06 - A
APP2624 9 11/21/2019 4:06:32 PM Simplified Interconnected Solar Photovoltaic 8.41 kW 15 - 01 - C
APP2640 10 11/25/2019 9:36:45 AM Simplified Interconnected Solar Photovoltaic 4.38 kW 5 - 08 - A
APP2644 11 11/25/2019 6:16:31 PM Simplified Interconnected Solar Photovoltaic 6.96 kW 5 - 01 - B
APP2658 12 12/12/2019 3:57:44 PM Simplified Interconnected Solar Photovoltaic 15.40 kW 24 - 04 - C
APP2681 13 12/16/2019 2:06:36 PM Simplified Interconnected Solar Photovoltaic 3.54 kW 27 - 04 - B
APP2684 14 12/17/2019 8:20:21 AM Simplified Interconnected Solar Photovoltaic 5.00 kW 27 - 04 - C
APP2671 15 12/17/2019 4:14:13 PM Simplified Interconnected Solar Photovoltaic 5.00 kW 5 - 01 - B
APP2696 16 12/26/2019 3:04:14 PM Simplified Interconnected Solar Photovoltaic 3.80 kW 5 - 02 - B
APP2754 17 1/11/2020 5:28:31 PM Simplified Interconnected Solar Photovoltaic 4.64 kW 5 - 03 - B
APP2806 18 1/30/2020 3:09:03 PM Simplified Interconnected Solar Photovoltaic 8.58 kW 6 - 06 - C
APP2834 19 2/7/2020 2:48:44 PM Simplified Interconnected Solar Photovoltaic 6.00 kW 9 - 04 - B
APP2848 20 2/11/2020 8:16:49 PM Simplified Interconnected Solar Photovoltaic 5.00 kW 14 - 03 - B
APP2870 21 2/19/2020 8:16:46 PM Simplified Interconnected Solar Photovoltaic 16.24 kW 26 - 04 - C
APP2880 22 3/4/2020 10:13:58 PM Simplified Interconnected Solar Photovoltaic 7.60 kW 25 - 06 - A
APP2913 23 3/6/2020 6:19:52 PM Simplified DER Installation and Interconnection Solar Photovoltaic 7.60 kW 27 - 03 - B
APP2844 24 3/9/2020 2:10:46 PM Simplified Interconnected Solar Photovoltaic 3.77 kW 21 - 06 - B
APP2911 25 3/13/2020 1:50:30 PM Simplified Interconnected Solar Photovoltaic 20.00 kW 6 - 02 - C
APP2932 26 3/17/2020 1:27:47 PM Simplified Interconnected Solar Photovoltaic 7.32 kW 22 - 03 - B
APP2981 27 3/26/2020 8:53:39 PM Simplified Interconnected Solar Photovoltaic 10.00 kW 19 - 04 - B
APP2993 28 3/30/2020 4:51:16 PM Simplified Interconnected Solar Photovoltaic 10.00 kW 4 - 02 - A
APP2999 29 3/31/2020 3:55:44 PM Simplified Interconnected Solar Photovoltaic 8.12 kW 27 - 03 - B
APP2982 30 4/2/2020 10:13:15 AM Simplified Interconnected Solar Photovoltaic 7.60 kW 16 - 04 - B
APP2997 31 4/2/2020 3:15:30 PM Simplified Interconnected Solar Photovoltaic 8.70 kW 12 - 03 - B
APP2996 32 4/2/2020 3:33:47 PM Simplified Interconnected Solar Photovoltaic 4.88 kW 11 - 06 - C
APP2908 33 4/6/2020 6:04:39 PM Simplified Interconnected Solar Photovoltaic 7.25 kW 4 - 01 - A
APP3007 34 4/7/2020 3:14:11 PM Simplified Interconnected Solar Photovoltaic 10.00 kW 24 - 06 - B
APP2843 35 4/20/2020 12:09:01 PM Simplified Interconnected Solar Photovoltaic 3.12 kW 11 - 10 - B
APP3063 36 4/25/2020 6:26:38 PM Simplified Interconnected Solar Photovoltaic 7.60 kW 23 - 02 - B
APP3082 37 4/29/2020 3:02:42 PM Simplified Interconnected Solar Photovoltaic 3.80 kW 11 - 08 - A
APP3051 38 4/30/2020 2:46:51 PM Simplified Interconnected Solar Photovoltaic 11.40 kW 21 - 03 - A
APP3087 39 5/4/2020 9:15:27 AM Simplified Interconnected Solar Photovoltaic 10.25 kW 5 - 09 - A
APP3091 40 5/14/2020 11:41:33 AM Simplified Interconnected Solar Photovoltaic 11.40 kW 9 - 03 - B
APP3150 41 5/20/2020 5:50:05 PM Simplified Interconnected Solar Photovoltaic 6.00 kW 5 - 02 - B
APP3153 42 5/21/2020 5:42:27 PM Simplified Interconnected Solar Photovoltaic 3.80 kW 16 - 03 - C
APP3176 43 5/28/2020 3:24:37 PM Simplified Interconnected Solar Photovoltaic 9.45 kW 21 - 06 - B
APP3196 44 6/4/2020 6:27:48 PM Simplified Interconnected Solar Photovoltaic 8.02 kW 22 - 04 - B
APP3203 45 6/9/2020 7:39:10 PM Simplified Interconnected Solar Photovoltaic 8.70 kW 22 - 06 - C
APP3117 46 6/10/2020 11:38:25 AM Simplified Interconnected Solar Photovoltaic 3.80 kW 11 - 11 - C
APP3230 47 6/12/2020 3:28:10 PM Simplified Interconnected Solar Photovoltaic 0.88 kW 27 - 04 - B
APP2728 48 6/15/2020 12:22:19 PM Simplified Interconnected Solar Photovoltaic 3.80 kW 17 - 03 - B
APP3222 49 6/15/2020 11:07:51 PM Simplified Interconnected Solar Photovoltaic 10.12 kW 16 - 03 - B
APP3231 50 6/18/2020 11:31:12 AM Simplified Interconnected Solar Photovoltaic 5.00 kW 5 - 02 - B
APP3277 51 6/27/2020 10:38:06 AM Simplified Interconnected Solar Photovoltaic 7.32 kW 11 - 03 - B
APP3279 52 6/27/2020 12:55:27 PM Simplified Interconnected Solar Photovoltaic 6.09 kW 9 - 02 - C
APP3256 53 6/29/2020 5:50:16 PM Simplified Interconnected Solar Photovoltaic 11.52 kW 27 - 04 - B
APP3276 54 7/6/2020 8:09:10 AM Simplified Interconnected Solar Photovoltaic 19.77 kW 5 - 04 - A
APP3164 55 7/7/2020 4:01:53 PM Simplified DER Installation and Interconnection Solar Photovoltaic 7.44 kW 32 - 02 - B
APP3316 56 7/12/2020 7:32:39 AM Simplified Interconnected Solar Photovoltaic 5.00 kW 11 - 05 - B
APP3309 57 7/12/2020 12:56:56 PM Fast Track Interconnected Solar Photovoltaic 22.80 kW 24 - 02 - C
APP3341 58 7/16/2020 12:36:58 PM Simplified Interconnected Solar Photovoltaic 6.00 kW 12 - 05 - A
APP3310 59 7/17/2020 1:48:41 PM Simplified Interconnected Solar Photovoltaic 17.60 kW 24 - 02 - C
APP3329 60 7/22/2020 9:09:11 AM Simplified Interconnected Solar Photovoltaic 6.09 kW 8 - 01 - A
APP3358 61 7/22/2020 1:52:10 PM Simplified Interconnected Solar Photovoltaic 7.20 kW 17 - 01 - C
APP3367 62 7/23/2020 10:19:07 PM Simplified Interconnected Solar Photovoltaic 9.28 kW 16 - 03 - A
APP3339 63 7/24/2020 11:22:58 AM Simplified Interconnected Solar Photovoltaic 5.00 kW 21 - 03 - B
APP3372 64 7/24/2020 1:42:48 PM Simplified Interconnected Solar Photovoltaic 6.38 kW 25 - 02 - A
APP3366 65 7/28/2020 5:06:12 PM Simplified Interconnected Solar Photovoltaic 7.83 kW 17 - 04 - B
APP3384 66 7/28/2020 8:59:20 PM Simplified Interconnected Solar Photovoltaic 5.51 kW 11 - 11 - B
APP3399 67 7/30/2020 3:39:19 PM Simplified Interconnected Solar Photovoltaic 5.00 kW 24 - 01 - B
APP3327 68 8/1/2020 12:51:18 PM Simplified Interconnected Solar Photovoltaic 3.84 kW 12 - 05 - A
APP3411 69 8/4/2020 7:28:35 PM Simplified Interconnected Solar Photovoltaic 6.98 kW 17 - 06 - A
APP3409 70 8/4/2020 8:07:16 PM Simplified Interconnected Solar Photovoltaic 9.77 kW 18 - 01 - C
APP3394 71 8/5/2020 10:09:47 AM Simplified Interconnected Solar Photovoltaic 2.90 kW 24 - 01 - A
APP3435 72 8/12/2020 4:48:05 PM Simplified Interconnected Solar Photovoltaic 7.92 kW 8 - 06 - B
APP3385 73 8/13/2020 10:35:06 AM Simplified Interconnected Solar Photovoltaic 6.00 kW 5 - 11 - A
APP3340 74 8/13/2020 12:13:02 PM Simplified Interconnected Solar Photovoltaic 5.00 kW 11 - 09 - C
APP3483 75 8/26/2020 9:23:51 PM Simplified Interconnected Solar Photovoltaic 10.44 kW 3 - 02 - C
APP3492 76 8/28/2020 4:14:18 PM Simplified Interconnected Solar Photovoltaic 4.93 kW 8 - 02 - A
APP3520 77 9/2/2020 6:12:56 PM Simplified Interconnected Solar Photovoltaic 5.22 kW 20 - 06 - B
APP3386 78 9/3/2020 8:21:33 AM Simplified Interconnected Solar Photovoltaic 6.00 kW 16 - 02 - B
APP3526 79 9/4/2020 5:47:40 PM Simplified Interconnected Solar Photovoltaic 13.80 kW 19 - 04 - A
APP3527 80 9/5/2020 3:08:13 PM Simplified Interconnected Solar Photovoltaic 7.60 kW 6 - 03 - A
APP3535 81 9/9/2020 4:23:25 PM Simplified Interconnected Solar Photovoltaic 12.06 kW 27 - 04 - B
APP3543 82 9/10/2020 4:52:25 PM Simplified Interconnected Solar Photovoltaic 7.60 kW 5 - 09 - B
APP3551 83 9/11/2020 4:27:34 PM Simplified Interconnected Solar Photovoltaic 7.54 kW 10 - 03 - A
APP3565 84 9/15/2020 7:58:29 AM Simplified Interconnected Solar Photovoltaic 7.12 kW 22 - 04 - A
APP3568 85 9/15/2020 11:32:15 AM Simplified Interconnected Solar Photovoltaic 8.77 kW 22 - 05 - A
APP3566 86 9/15/2020 3:08:16 PM Simplified Interconnected Solar Photovoltaic 9.32 kW 22 - 04 - A
APP3570 87 9/15/2020 7:42:22 PM Simplified Interconnected Solar Photovoltaic 4.93 kW 24 - 01 - B
APP3575 88 9/15/2020 8:12:46 PM Simplified Interconnected Solar Photovoltaic 10.41 kW 22 - 03 - A
APP3573 89 9/15/2020 9:05:15 PM Simplified Interconnected Solar Photovoltaic 5.80 kW 6 - 01 - C
APP3574 90 9/16/2020 6:29:57 PM Simplified Interconnected Solar Photovoltaic 9.32 kW 22 - 06 - B
APP3532 91 9/17/2020 4:30:21 PM Simplified Interconnected Solar Photovoltaic 10.00 kW 22 - 03 - B
APP3589 92 9/17/2020 8:19:54 PM Simplified Interconnected Solar Photovoltaic 7.54 kW 15 - 04 - A
APP3537 93 9/18/2020 11:51:01 AM Simplified Interconnected Solar Photovoltaic 4.93 kW 25 - 05 - C
APP3586 94 9/18/2020 12:39:29 PM Simplified Interconnected Solar Photovoltaic 6.58 kW 22 - 06 - A
APP3583 95 9/18/2020 12:47:47 PM Simplified Interconnected Solar Photovoltaic 3.29 kW 17 - 03 - C
APP3564 96 9/18/2020 4:50:45 PM Simplified Interconnected Solar Photovoltaic 7.67 kW 27 - 04 - A
APP3603 97 9/18/2020 5:01:15 PM Simplified Interconnected Solar Photovoltaic 5.22 kW 5 - 11 - A
APP3602 98 9/19/2020 2:47:36 PM Simplified Interconnected Solar Photovoltaic 6.09 kW 24 - 01 - C
APP3552 99 9/19/2020 10:06:44 PM Simplified Interconnected Solar Photovoltaic 6.96 kW 5 - 08 - A
APP3599 100 9/21/2020 12:57:53 PM Simplified Interconnected Solar Photovoltaic 6.78 kW 26 - 02 - A
APP3594 101 9/21/2020 8:22:08 PM Simplified Interconnected Solar Photovoltaic 5.48 kW 25 - 01 - C
APP3618 102 9/21/2020 8:58:58 PM Simplified Interconnected Solar Photovoltaic 8.70 kW 26 - 02 - C
APP3517 103 9/22/2020 9:30:06 AM Simplified Interconnected Solar Photovoltaic 20.00 kW 15 - 04 - C
APP3601 104 9/22/2020 5:36:21 PM Simplified Interconnected Solar Photovoltaic 6.38 kW 13 - 04 - C
APP3624 105 9/23/2020 11:19:51 AM Simplified Interconnected Solar Photovoltaic 5.00 kW 25 - 01 - C
APP3593 106 9/23/2020 7:25:49 PM Simplified Interconnected Solar Photovoltaic 7.60 kW 3 - 01 - C
APP3588 107 9/24/2020 7:51:43 AM Simplified Interconnected Solar Photovoltaic 4.35 kW 6 - 05 - A
APP3569 108 9/24/2020 10:21:28 AM Simplified Interconnected Solar Photovoltaic 10.41 kW 24 - 01 - B
APP3595 109 9/25/2020 12:03:10 PM Simplified Interconnected Solar Photovoltaic 10.96 kW 11 - 08 - B
APP3636 110 9/25/2020 1:40:52 PM Simplified Interconnected Solar Photovoltaic 7.67 kW 6 - 01 - B
APP3567 111 9/28/2020 9:58:15 AM Simplified Interconnected Solar Photovoltaic 4.93 kW 22 - 06 - A
APP3634 112 9/28/2020 4:10:16 PM Simplified Interconnected Solar Photovoltaic 5.48 kW 17 - 03 - B
APP3665 113 9/29/2020 11:22:54 AM Simplified Interconnected Solar Photovoltaic 4.93 kW 16 - 03 - B
APP3664 114 9/29/2020 2:57:12 PM Simplified Interconnected Solar Photovoltaic 4.38 kW 25 - 01 - C
APP3666 115 9/29/2020 11:18:21 PM Simplified Interconnected Solar Photovoltaic 4.38 kW 17 - 04 - B
APP3621 116 9/30/2020 6:04:05 AM Simplified Interconnected Solar Photovoltaic 4.16 kW 22 - 02 - C
APP3600 117 9/30/2020 3:56:01 PM Simplified Interconnected Solar Photovoltaic 10.73 kW 12 - 05 - A
APP3521 118 9/30/2020 4:26:59 PM Simplified Interconnected Solar Photovoltaic 7.25 kW 17 - 05 - A
APP3631 119 9/30/2020 5:09:57 PM Simplified Interconnected Solar Photovoltaic 10.00 kW 24 - 01 - A
APP3563 120 9/30/2020 7:11:51 PM Simplified Interconnected Solar Photovoltaic 5.00 kW 27 - 04 - A
APP3677 121 10/4/2020 8:31:58 PM Simplified Interconnected Solar Photovoltaic 5.22 kW 9 - 03 - C
APP3699 122 10/6/2020 12:03:40 PM Simplified Interconnected Solar Photovoltaic 6.00 kW 11 - 09 - A
APP3698 123 10/6/2020 6:30:36 PM Simplified Interconnected Solar Photovoltaic 12.91 kW 22 - 04 - C
APP3705 124 10/6/2020 9:34:20 PM Simplified Interconnected Solar Photovoltaic 7.12 kW 24 - 01 - C
APP3715 125 10/8/2020 12:41:50 PM Simplified Interconnected Solar Photovoltaic 9.32 kW 27 - 04 - B
APP3718 126 10/8/2020 1:34:15 PM Simplified Interconnected Solar Photovoltaic 11.51 kW 22 - 06 - A
APP3719 127 10/8/2020 1:56:59 PM Simplified Interconnected Solar Photovoltaic 10.41 kW 22 - 06 - A
APP3721 128 10/8/2020 7:53:25 PM Simplified Interconnected Solar Photovoltaic 6.03 kW 22 - 06 - A
APP3726 129 10/8/2020 8:42:39 PM Simplified Interconnected Solar Photovoltaic 8.77 kW 22 - 04 - A
APP3725 130 10/10/2020 8:06:59 AM Simplified Interconnected Solar Photovoltaic 8.22 kW 11 - 10 - C
APP3717 131 10/10/2020 3:52:01 PM Simplified Interconnected Solar Photovoltaic 5.48 kW 24 - 06 - A
APP3714 132 10/12/2020 8:04:15 AM Simplified Interconnected Solar Photovoltaic 8.22 kW 22 - 03 - C
APP3739 133 10/12/2020 3:04:02 PM Simplified Interconnected Solar Photovoltaic 6.00 kW 5 - 09 - B
APP3706 134 10/12/2020 4:58:32 PM Simplified Interconnected Solar Photovoltaic 7.12 kW 25 - 03 - B
APP3740 135 10/13/2020 10:04:33 AM Simplified Interconnected Solar Photovoltaic 10.00 kW 11 - 05 - B
APP3749 136 10/13/2020 3:09:07 PM Simplified Interconnected Solar Photovoltaic 6.03 kW 21 - 04 - A
APP3752 137 10/13/2020 3:59:49 PM Simplified Interconnected Solar Photovoltaic 5.48 kW 16 - 03 - B
APP3751 138 10/13/2020 4:12:34 PM Simplified Interconnected Solar Photovoltaic 6.58 kW 25 - 03 - B
APP3756 139 10/13/2020 4:22:35 PM Simplified Interconnected Solar Photovoltaic 8.22 kW 22 - 05 - A
APP3754 140 10/13/2020 9:31:52 PM Simplified Interconnected Solar Photovoltaic 4.93 kW 24 - 06 - A
APP3767 141 10/15/2020 1:37:36 PM Simplified Interconnected Solar Photovoltaic 3.29 kW 22 - 06 - A
APP3764 142 10/15/2020 1:51:03 PM Simplified Interconnected Solar Photovoltaic 7.67 kW 22 - 04 - A
APP3755 143 10/15/2020 2:15:36 PM Simplified Interconnected Solar Photovoltaic 9.86 kW 25 - 01 - B
APP3762 144 10/15/2020 3:33:00 PM Simplified Interconnected Solar Photovoltaic 5.48 kW 25 - 01 - A
APP3766 145 10/15/2020 5:00:09 PM Simplified Interconnected Solar Photovoltaic 7.67 kW 25 - 03 - A
APP3720 146 10/16/2020 4:51:26 PM Simplified Interconnected Solar Photovoltaic 7.12 kW 22 - 06 - A
APP3707 147 10/17/2020 9:14:56 AM Simplified Interconnected Solar Photovoltaic 4.93 kW 22 - 03 - A
APP3716 148 10/17/2020 5:02:32 PM Simplified Interconnected Solar Photovoltaic 5.48 kW 24 - 01 - A
APP3675 149 10/18/2020 9:31:55 AM Simplified Interconnected Solar Photovoltaic 7.83 kW 25 - 03 - B
APP3778 150 10/19/2020 8:38:49 AM Simplified Interconnected Solar Photovoltaic 5.48 kW 16 - 04 - A
APP3773 151 10/20/2020 8:47:50 AM Simplified Interconnected Solar Photovoltaic 7.60 kW 6 - 01 - A
APP3781 152 10/20/2020 2:09:47 PM Simplified Interconnected Solar Photovoltaic 3.80 kW 6 - 05 - C
APP3653 153 10/20/2020 3:49:43 PM Simplified Pending Contract (Customer) Solar Photovoltaic 7.60 kW 8 - 05 - B
APP3753 154 10/21/2020 11:39:50 AM Simplified Interconnected Solar Photovoltaic 4.93 kW 17 - 04 - B
APP3622 155 10/21/2020 12:16:17 PM Simplified Interconnected Solar Photovoltaic 7.95 kW 10 - 03 - A
APP3804 156 10/21/2020 1:34:59 PM Simplified Interconnected Solar Photovoltaic 3.80 kW 16 - 03 - B
APP3801 157 10/21/2020 8:39:48 PM Simplified Interconnected Solar Photovoltaic 4.72 kW 12 - 04 - B
APP3807 158 10/22/2020 11:21:15 AM Simplified Interconnected Solar Photovoltaic 11.60 kW 22 - 05 - B
APP3776 159 10/22/2020 11:43:52 AM Simplified Interconnected Solar Photovoltaic 7.67 kW 20 - 04 - A
APP3814 160 10/22/2020 1:50:59 PM Simplified Interconnected Solar Photovoltaic 6.03 kW 22 - 06 - A
APP3820 161 10/23/2020 12:13:35 PM Simplified Interconnected Solar Photovoltaic 8.77 kW 25 - 03 - B
APP3821 162 10/23/2020 12:24:14 PM Simplified Interconnected Solar Photovoltaic 7.60 kW 13 - 06 - B
APP3825 163 10/23/2020 2:25:32 PM Simplified Interconnected Solar Photovoltaic 6.92 kW 6 - 01 - B
APP3819 164 10/23/2020 3:46:40 PM Simplified Interconnected Solar Photovoltaic 7.12 kW 19 - 04 - B
APP3824 165 10/23/2020 5:27:53 PM Simplified Interconnected Solar Photovoltaic 8.22 kW 6 - 01 - B
APP3779 166 10/25/2020 9:45:11 AM Simplified Interconnected Solar Photovoltaic 9.32 kW 6 - 05 - C
APP3770 167 10/27/2020 8:22:02 AM Simplified Interconnected Solar Photovoltaic 7.12 kW 16 - 02 - B
APP3785 168 10/27/2020 11:03:37 AM Simplified Interconnected Solar Photovoltaic 5.31 kW 6 - 05 - C
APP3833 169 10/29/2020 11:53:41 AM Simplified Interconnected Solar Photovoltaic 6.57 kW 16 - 03 - A
APP3687 170 10/29/2020 2:08:59 PM Simplified Interconnected Solar Photovoltaic 6.00 kW 9 - 03 - B
APP3858 171 10/29/2020 9:47:12 PM Simplified Interconnected Solar Photovoltaic 12.06 kW 16 - 04 - A
APP3855 172 10/31/2020 2:29:27 PM Simplified Interconnected Solar Photovoltaic 5.48 kW 11 - 03 - B
APP3872 173 11/4/2020 8:42:37 PM Simplified Interconnected Solar Photovoltaic 10.00 kW 6 - 02 - B
APP3882 174 11/5/2020 1:37:57 PM Simplified Interconnected Solar Photovoltaic 6.09 kW 16 - 04 - A
APP3883 175 11/5/2020 3:03:20 PM Simplified Interconnected Solar Photovoltaic 8.70 kW 27 - 04 - B
APP3884 176 11/6/2020 12:07:16 PM Simplified Interconnected Solar Photovoltaic 1.68 kW 29 - 01 - A
APP3818 177 11/6/2020 1:00:00 PM Simplified Interconnected Solar Photovoltaic 10.96 kW 22 - 05 - B
APP3886 178 11/7/2020 9:42:37 AM Simplified Interconnected Solar Photovoltaic 5.52 kW 22 - 06 - C
APP3869 179 11/10/2020 2:45:53 PM Simplified Interconnected Solar Photovoltaic 14.25 kW 27 - 04 - A
APP3862 180 11/10/2020 3:03:15 PM Simplified Interconnected Solar Photovoltaic 6.03 kW 26 - 02 - C
APP3903 181 11/11/2020 1:20:58 PM Simplified Interconnected Solar Photovoltaic 3.84 kW 17 - 03 - A
APP3898 182 11/11/2020 1:38:58 PM Simplified Interconnected Solar Photovoltaic 3.84 kW 25 - 01 - A
APP3900 183 11/11/2020 2:46:31 PM Simplified Interconnected Solar Photovoltaic 8.77 kW 27 - 04 - B
APP3895 184 11/11/2020 8:30:47 PM Simplified Interconnected Solar Photovoltaic 5.48 kW 25 - 02 - B
APP3906 185 11/13/2020 8:25:09 AM Simplified Interconnected Solar Photovoltaic 3.80 kW 25 - 06 - A
APP3835 186 11/13/2020 11:10:53 AM Simplified Interconnected Solar Photovoltaic 7.60 kW 5 - 01 - A
APP3902 187 11/13/2020 11:21:52 AM Simplified Interconnected Solar Photovoltaic 6.03 kW 26 - 02 - B
APP3907 188 11/13/2020 12:36:47 PM Simplified Interconnected Solar Photovoltaic 6.03 kW 25 - 02 - B
APP3901 189 11/13/2020 1:29:58 PM Simplified Interconnected Solar Photovoltaic 8.77 kW 26 - 02 - B
APP3905 190 11/13/2020 2:41:31 PM Simplified Pending Contract (Customer) Solar Photovoltaic 15.00 kW 16 - 02 - B
APP3917 191 11/13/2020 3:18:47 PM Simplified Interconnected Solar Photovoltaic 11.31 kW 6 - 05 - A
APP3911 192 11/14/2020 4:18:22 PM Simplified Interconnected Solar Photovoltaic 7.60 kW 17 - 01 - C
APP3894 193 11/16/2020 12:59:15 PM Simplified Interconnected Solar Photovoltaic 7.60 kW 19 - 02 - C
APP3916 194 11/16/2020 6:30:12 PM Simplified Interconnected Solar Photovoltaic 3.80 kW 11 - 11 - B
APP3928 195 11/18/2020 10:54:50 AM Simplified Interconnected Solar Photovoltaic 4.38 kW 25 - 03 - B
APP3927 196 11/18/2020 12:17:00 PM Simplified Interconnected Solar Photovoltaic 7.67 kW 17 - 02 - B
APP3930 197 11/19/2020 11:22:44 AM Simplified Pending Contract (Customer) Solar Photovoltaic 8.22 kW 27 - 04 - B
APP3929 198 11/19/2020 12:50:05 PM Simplified Interconnected Solar Photovoltaic 7.12 kW 25 - 01 - B
APP3935 199 11/20/2020 11:11:38 AM Simplified Interconnected Solar Photovoltaic 4.64 kW 11 - 10 - B
APP3889 200 11/21/2020 7:23:48 AM Simplified Interconnected Solar Photovoltaic 8.85 kW 5 - 02 - A
APP3899 201 11/24/2020 9:40:17 AM Simplified Interconnected Solar Photovoltaic 3.29 kW 25 - 01 - B
APP3914 202 11/24/2020 5:01:14 PM Simplified Interconnected Solar Photovoltaic 10.44 kW 10 - 07 - C
APP3864 203 11/24/2020 5:02:32 PM Simplified Interconnected Solar Photovoltaic 6.49 kW 5 - 01 - C
APP3952 204 11/25/2020 9:13:44 AM Simplified Interconnected Solar Photovoltaic 5.48 kW 11 - 11 - A
APP3951 205 11/25/2020 9:40:41 AM Simplified Interconnected Solar Photovoltaic 4.93 kW 11 - 03 - A
APP3953 206 11/25/2020 10:26:36 AM Simplified Interconnected Solar Photovoltaic 6.58 kW 16 - 03 - C
APP3948 207 11/25/2020 12:50:49 PM Fast Track Interconnected Solar Photovoltaic 21.46 kW 5 - 02 - C
APP3822 208 11/25/2020 1:19:32 PM Simplified Interconnected Solar Photovoltaic 6.58 kW 16 - 01 - B
APP3957 209 11/25/2020 3:01:58 PM Simplified Interconnected Solar Photovoltaic 5.48 kW 11 - 11 - C
APP3896 210 11/25/2020 6:35:46 PM Simplified Interconnected Solar Photovoltaic 7.67 kW 25 - 03 - B
APP3962 211 11/30/2020 4:59:55 PM Simplified Interconnected Solar Photovoltaic 4.93 kW 11 - 11 - A
APP3965 212 12/1/2020 2:29:45 PM Simplified Interconnected Solar Photovoltaic 13.80 kW 13 - 01 - A
APP3972 213 12/2/2020 1:43:26 PM Simplified Interconnected Solar Photovoltaic 8.77 kW 22 - 03 - B
APP3955 214 12/3/2020 10:49:56 AM Simplified Interconnected Solar Photovoltaic 6.58 kW 11 - 11 - A
APP3954 215 12/3/2020 3:37:46 PM Simplified Interconnected Solar Photovoltaic 3.29 kW 21 - 01 - A
APP3859 216 12/4/2020 11:56:20 AM Simplified Interconnected Solar Photovoltaic 4.38 kW 22 - 06 - B
APP3961 217 12/5/2020 3:02:06 PM Simplified Interconnected Solar Photovoltaic 6.03 kW 17 - 02 - B
APP3980 218 12/8/2020 1:19:24 PM Simplified Interconnected Solar Photovoltaic 3.84 kW 11 - 11 - B
APP3982 219 12/8/2020 1:57:41 PM Simplified Interconnected Solar Photovoltaic 6.03 kW 24 - 06 - C
APP3984 220 12/8/2020 2:07:14 PM Simplified Interconnected Solar Photovoltaic 9.32 kW 27 - 04 - A
APP3985 221 12/8/2020 6:32:04 PM Simplified Pending Contract (Customer) Solar Photovoltaic 9.86 kW 11 - 11 - B
APP3777 222 12/10/2020 8:42:28 AM Simplified Interconnected Solar Photovoltaic 3.29 kW 16 - 02 - C
APP3983 223 12/10/2020 10:11:05 AM Simplified Interconnected Solar Photovoltaic 8.22 kW 25 - 03 - B
APP3981 224 12/10/2020 11:44:21 AM Simplified Interconnected Solar Photovoltaic 4.38 kW 11 - 11 - B
APP3945 225 12/10/2020 1:56:13 PM Simplified Interconnected Solar Photovoltaic 9.86 kW 11 - 08 - A
APP3920 226 12/10/2020 2:01:25 PM Simplified Interconnected Solar Photovoltaic 10.47 kW 16 - 04 - C
APP3999 227 12/15/2020 5:40:51 PM Simplified Interconnected Solar Photovoltaic 10.41 kW 17 - 02 - A
APP4017 228 12/23/2020 4:31:04 PM Simplified Interconnected Solar Photovoltaic 3.80 kW 11 - 04 - C
APP4018 229 12/28/2020 2:49:35 PM Simplified Interconnected Solar Photovoltaic 3.80 kW 11 - 04 - B
APP3874 230 1/4/2021 4:41:56 PM Simplified Pending Contract (Customer) Solar Photovoltaic 7.67 kW 15 - 03 - A
APP4000 231 1/5/2021 8:22:41 PM Simplified Interconnected Solar Photovoltaic 7.67 kW 25 - 02 - B
APP3996 232 1/8/2021 9:01:43 PM Simplified Interconnected Solar Photovoltaic 7.25 kW 16 - 03 - C
APP4022 233 1/14/2021 6:00:54 PM Simplified Interconnected Solar Photovoltaic 9.32 kW 24 - 01 - B
APP4061 234 1/21/2021 4:18:29 PM Simplified Interconnected Solar Photovoltaic 6.38 kW 16 - 04 - C
APP4021 235 1/27/2021 2:22:59 PM Simplified Interconnected Solar Photovoltaic 7.12 kW 24 - 01 - A
APP4077 236 1/27/2021 2:28:44 PM Simplified Interconnected Solar Photovoltaic 17.60 kW 5 - 01 - C
APP4072 237 1/27/2021 2:33:10 PM Simplified Interconnected Solar Photovoltaic 9.86 kW 24 - 01 - A
APP4087 238 1/30/2021 10:23:01 AM Simplified Interconnected Solar Photovoltaic 7.44 kW 25 - 06 - A
APP3988 239 1/31/2021 5:42:41 AM Simplified Interconnected Solar Photovoltaic 6.96 kW 16 - 02 - A
APP4083 240 1/31/2021 8:19:58 PM Fast Track Interconnected Solar Photovoltaic 38.00 kW 3 - 03 - B
APP4033 241 2/1/2021 10:50:59 AM Simplified DER Installation and Interconnection Solar Photovoltaic 10.00 kW 16 - 02 - C
APP4092 242 2/1/2021 4:46:30 PM Simplified Interconnected Solar Photovoltaic 5.00 kW 9 - 02 - C
APP4093 243 2/2/2021 3:10:47 PM Simplified Interconnected Solar Photovoltaic 7.67 kW 24 - 06 - C
APP4056 244 2/3/2021 7:51:57 AM Simplified Interconnected Solar Photovoltaic 6.38 kW 3 - 02 - C
APP4014 245 2/4/2021 9:42:06 PM Simplified Interconnected Solar Photovoltaic 5.22 kW 11 - 04 - A
APP4105 246 2/5/2021 12:17:48 PM Simplified Interconnected Solar Photovoltaic 10.00 kW 16 - 06 - C
APP4097 247 2/5/2021 10:26:53 PM Simplified Interconnected Solar Photovoltaic 7.60 kW 12 - 01 - A
APP4106 248 2/6/2021 11:29:14 AM Simplified Interconnected Solar Photovoltaic 5.00 kW 11 - 11 - A
APP4108 249 2/8/2021 12:27:28 PM Simplified Interconnected Solar Photovoltaic 5.48 kW 24 - 06 - C
APP4109 250 2/8/2021 12:46:30 PM Simplified Interconnected Solar Photovoltaic 8.22 kW 24 - 06 - C
APP4115 251 2/8/2021 1:56:23 PM Simplified Interconnected Solar Photovoltaic 5.48 kW 22 - 06 - A
APP4116 252 2/8/2021 2:37:13 PM Simplified Interconnected Solar Photovoltaic 10.96 kW 22 - 03 - A
APP4110 253 2/8/2021 5:04:36 PM Simplified Interconnected Solar Photovoltaic 4.38 kW 22 - 06 - A
APP4114 254 2/9/2021 9:13:55 AM Simplified Interconnected Solar Photovoltaic 7.12 kW 22 - 06 - A
APP4068 255 2/9/2021 10:52:24 AM Simplified Interconnected Solar Photovoltaic 11.40 kW 15 - 04 - C
APP4113 256 2/9/2021 2:24:07 PM Simplified Interconnected Solar Photovoltaic 7.67 kW 22 - 06 - B
APP4111 257 2/9/2021 3:53:29 PM Simplified Interconnected Solar Photovoltaic 7.12 kW 22 - 06 - A
APP4120 258 2/10/2021 8:29:31 AM Simplified Interconnected Solar Photovoltaic 11.40 kW 21 - 02 - B
APP4112 259 2/10/2021 12:58:08 PM Simplified Interconnected Solar Photovoltaic 11.51 kW 24 - 01 - A
APP4117 260 2/10/2021 1:29:32 PM Simplified Interconnected Solar Photovoltaic 5.48 kW 25 - 04 - B
APP4124 261 2/10/2021 1:51:07 PM Simplified Interconnected Solar Photovoltaic 6.58 kW 24 - 06 - C
APP4125 262 2/10/2021 2:36:37 PM Simplified Interconnected Solar Photovoltaic 8.22 kW 22 - 06 - B
APP4121 263 2/10/2021 3:05:10 PM Simplified Interconnected Solar Photovoltaic 9.32 kW 25 - 03 - A
APP4122 264 2/10/2021 8:18:33 PM Simplified Interconnected Solar Photovoltaic 7.67 kW 22 - 06 - A
APP4128 265 2/11/2021 4:43:12 PM Simplified Interconnected Solar Photovoltaic 3.49 kW 17 - 06 - C
APP4138 266 2/12/2021 1:48:21 PM Simplified Interconnected Solar Photovoltaic 6.03 kW 25 - 01 - C
APP4058 267 2/12/2021 10:05:43 PM Simplified Interconnected Solar Photovoltaic 7.60 kW 6 - 04 - A
APP4146 268 2/13/2021 2:41:04 PM Simplified Interconnected Solar Photovoltaic 6.58 kW 22 - 03 - A
APP4145 269 2/13/2021 4:21:00 PM Simplified Interconnected Solar Photovoltaic 6.58 kW 25 - 04 - B
APP4123 270 2/15/2021 9:03:56 AM Simplified Interconnected Solar Photovoltaic 7.12 kW 22 - 06 - C
APP4103 271 2/15/2021 3:40:25 PM Simplified Interconnected Solar Photovoltaic 12.91 kW 8 - 03 - A
APP4118 272 2/15/2021 3:54:19 PM Simplified Interconnected Solar Photovoltaic 9.07 kW 6 - 05 - C
APP4065 273 2/15/2021 3:58:22 PM Simplified Interconnected Solar Photovoltaic 10.00 kW 24 - 06 - C
APP4168 274 2/16/2021 1:56:33 PM Simplified Interconnected Solar Photovoltaic 7.12 kW 25 - 03 - C
APP4169 275 2/16/2021 2:03:01 PM Simplified Interconnected Solar Photovoltaic 5.48 kW 25 - 04 - B
APP4162 276 2/16/2021 2:16:25 PM Simplified Interconnected Solar Photovoltaic 6.03 kW 22 - 06 - B
APP4167 277 2/16/2021 3:57:03 PM Simplified Interconnected Solar Photovoltaic 5.48 kW 25 - 05 - C
APP4164 278 2/16/2021 4:23:23 PM Simplified Interconnected Solar Photovoltaic 7.67 kW 24 - 06 - C
APP4107 279 2/17/2021 9:38:56 AM Simplified Interconnected Solar Photovoltaic 9.15 kW 22 - 01 - B
APP4144 280 2/17/2021 2:26:01 PM Simplified Interconnected Solar Photovoltaic 8.22 kW 25 - 01 - B
APP4172 281 2/17/2021 8:04:50 PM Simplified Interconnected Solar Photovoltaic 3.29 kW 22 - 06 - B
APP4166 282 2/17/2021 10:29:10 PM Simplified Interconnected Solar Photovoltaic 4.93 kW 25 - 01 - B
APP4170 283 2/18/2021 10:33:10 AM Simplified Pending Contract (Customer) Solar Photovoltaic 5.48 kW 25 - 03 - A
APP4191 284 2/19/2021 10:35:29 AM Simplified Interconnected Solar Photovoltaic 5.48 kW 25 - 04 - B
APP4189 285 2/19/2021 10:45:55 AM Simplified Interconnected Solar Photovoltaic 3.84 kW 25 - 04 - B
APP4197 286 2/20/2021 8:23:47 AM Simplified Interconnected Solar Photovoltaic 6.96 kW 27 - 04 - A
APP4210 287 2/23/2021 7:20:20 AM Simplified Interconnected Solar Photovoltaic 8.77 kW 27 - 04 - C
APP4212 288 2/23/2021 10:03:52 AM Simplified Interconnected Solar Photovoltaic 4.93 kW 22 - 04 - A
APP4209 289 2/23/2021 3:44:42 PM Simplified Interconnected Solar Photovoltaic 7.67 kW 26 - 02 - C
APP4211 290 2/23/2021 4:58:08 PM Simplified Interconnected Solar Photovoltaic 7.12 kW 22 - 04 - A
APP4161 291 2/24/2021 1:19:38 PM Simplified Interconnected Solar Photovoltaic 13.15 kW 25 - 01 - C
APP4174 292 2/24/2021 5:14:53 PM Simplified Interconnected Solar Photovoltaic 3.00 kW 12 - 04 - A
APP4225 293 2/25/2021 9:10:14 PM Simplified Interconnected Solar Photovoltaic 11.51 kW 22 - 04 - B
APP4223 294 2/25/2021 9:51:57 PM Simplified Interconnected Solar Photovoltaic 7.12 kW 22 - 04 - A
APP4224 295 2/25/2021 10:00:46 PM Simplified Interconnected Solar Photovoltaic 12.60 kW 17 - 03 - C
APP4127 296 2/26/2021 11:59:03 AM Simplified Interconnected Solar Photovoltaic 6.58 kW 22 - 06 - C
APP4190 297 2/28/2021 1:10:16 PM Simplified Interconnected Solar Photovoltaic 4.38 kW 22 - 03 - C
APP4226 298 3/1/2021 9:59:12 AM Simplified Interconnected Solar Photovoltaic 11.51 kW 27 - 04 - B
APP4187 299 3/3/2021 11:44:17 AM Simplified Interconnected Solar Photovoltaic 15.20 kW 5 - 05 - B
APP4196 300 3/3/2021 11:54:23 AM Simplified Interconnected Solar Photovoltaic 12.06 kW 22 - 03 - C
APP4219 301 3/3/2021 4:12:19 PM Simplified Interconnected Solar Photovoltaic 5.80 kW 16 - 04 - C
APP4203 302 3/4/2021 1:56:21 PM Simplified Interconnected Solar Photovoltaic 6.00 kW 21 - 04 - C
APP4237 303 3/4/2021 2:11:23 PM Simplified Pending Contract (Customer) Solar Photovoltaic 6.58 kW 22 - 06 - B
APP4252 304 3/5/2021 3:02:47 PM Simplified Interconnected Solar Photovoltaic 7.67 kW 22 - 05 - C
APP4255 305 3/5/2021 5:01:06 PM Simplified Interconnected Solar Photovoltaic 6.03 kW 24 - 06 - A
APP4251 306 3/5/2021 11:20:56 PM Simplified Interconnected Solar Photovoltaic 8.03 kW 5 - 02 - C
APP4256 307 3/6/2021 9:36:14 AM Simplified Interconnected Solar Photovoltaic 4.38 kW 24 - 06 - C
APP4254 308 3/6/2021 10:04:11 AM Simplified Interconnected Solar Photovoltaic 7.67 kW 12 - 02 - B
APP4233 309 3/6/2021 3:29:02 PM Simplified Interconnected Solar Photovoltaic 7.67 kW 17 - 02 - B
APP4260 310 3/8/2021 8:28:12 PM Simplified Interconnected Solar Photovoltaic 10.41 kW 17 - 02 - A
APP4253 311 3/12/2021 7:57:00 AM Simplified Interconnected Solar Photovoltaic 14.25 kW 17 - 04 - B
APP4268 312 3/12/2021 10:35:55 AM Simplified Interconnected Solar Photovoltaic 8.22 kW 22 - 05 - B
APP4297 313 3/17/2021 9:15:49 AM Simplified Interconnected Solar Photovoltaic 7.60 kW 5 - 02 - B
APP4314 314 3/18/2021 10:03:56 AM Simplified Interconnected Solar Photovoltaic 4.93 kW 22 - 06 - C
APP4310 315 3/18/2021 10:10:37 AM Simplified Interconnected Solar Photovoltaic 5.48 kW 27 - 04 - A
APP4313 316 3/18/2021 10:23:14 AM Simplified Interconnected Solar Photovoltaic 7.12 kW 22 - 06 - B
APP4311 317 3/18/2021 10:47:11 AM Simplified Interconnected Solar Photovoltaic 10.96 kW 5 - 02 - B
APP4312 318 3/18/2021 12:18:19 PM Simplified Interconnected Solar Photovoltaic 7.67 kW 12 - 02 - A
APP4289 319 3/19/2021 8:48:48 PM Simplified Interconnected Solar Photovoltaic 3.48 kW 12 - 04 - B
APP4329 320 3/20/2021 8:10:45 AM Simplified Interconnected Solar Photovoltaic 7.67 kW 24 - 01 - B
APP4318 321 3/22/2021 8:15:25 AM Simplified Interconnected Solar Photovoltaic 6.96 kW 11 - 08 - B
APP4321 322 3/22/2021 9:09:42 AM Simplified Interconnected Solar Photovoltaic 5.51 kW 5 - 01 - A
APP4326 323 3/22/2021 1:45:34 PM Simplified Interconnected Solar Photovoltaic 6.03 kW 25 - 01 - C
APP4352 324 3/23/2021 11:40:39 AM Simplified Interconnected Solar Photovoltaic 7.25 kW 6 - 01 - C
APP4327 325 3/23/2021 1:14:35 PM Simplified Interconnected Solar Photovoltaic 8.41 kW 22 - 04 - A
APP4232 326 3/23/2021 6:45:03 PM Simplified Interconnected Solar Photovoltaic 5.22 kW 12 - 04 - C
APP4320 327 3/25/2021 8:46:22 AM Fast Track Interconnected Diesel Genset 500.00 kW 10 - 06 - ABC
APP4328 328 3/25/2021 7:58:59 PM Simplified Interconnected Solar Photovoltaic 3.77 kW 25 - 02 - C
APP4354 329 3/26/2021 3:38:31 PM Simplified Interconnected Solar Photovoltaic 7.60 kW 25 - 06 - A
APP4377 330 3/31/2021 5:04:55 PM Simplified Interconnected Solar Photovoltaic 6.58 kW 18 - 01 - A
APP4304 331 4/4/2021 9:50:32 PM Simplified Interconnected Solar Photovoltaic 4.64 kW 21 - 04 - A
APP4409 332 4/7/2021 9:06:35 AM Simplified Interconnected Solar Photovoltaic 6.58 kW 3 - 01 - C
APP4406 333 4/7/2021 9:50:36 AM Simplified Interconnected Solar Photovoltaic 6.58 kW 18 - 01 - B
APP4407 334 4/7/2021 10:30:51 AM Simplified Interconnected Solar Photovoltaic 5.48 kW 18 - 01 - C
APP4399 335 4/7/2021 5:06:11 PM Fast Track Interconnected Solar Photovoltaic 33.60 kW 30 - 03 - C
APP4302 336 4/9/2021 10:28:51 AM Simplified Interconnected Solar Photovoltaic 4.64 kW 8 - 05 - B
APP4418 337 4/9/2021 12:59:15 PM Simplified Interconnected Solar Photovoltaic 4.93 kW 16 - 02 - C
APP4428 338 4/13/2021 11:36:22 AM Simplified DER Installation and Interconnection Solar Photovoltaic 7.60 kW 21 - 01 - B
APP4217 339 4/13/2021 1:29:38 PM Fast Track Interconnected Solar Photovoltaic 34.20 kW 4 - 04 - B
APP4408 340 4/13/2021 4:38:49 PM Simplified Interconnected Solar Photovoltaic 13.70 kW 18 - 01 - B
APP4405 341 4/14/2021 2:08:01 PM Simplified Interconnected Solar Photovoltaic 4.93 kW 18 - 01 - B
APP4438 342 4/14/2021 4:56:22 PM Simplified Interconnected Solar Photovoltaic 8.77 kW 3 - 01 - B
APP4452 343 4/20/2021 12:57:27 PM Simplified Interconnected Solar Photovoltaic 7.60 kW 27 - 04 - A
APP4368 344 4/20/2021 6:23:56 PM Simplified Pending Contract (Customer) Solar Photovoltaic 7.60 kW 22 - 03 - A
APP4457 345 4/22/2021 8:09:42 AM Simplified Interconnected Solar Photovoltaic 9.77 kW 3 - 02 - B
APP4436 346 4/22/2021 1:04:22 PM Simplified DER Installation and Interconnection Solar Photovoltaic 10.00 kW 17 - 01 - C
APP4453 347 4/24/2021 10:14:20 AM Simplified Interconnected Solar Photovoltaic 5.22 kW 16 - 02 - B
APP4468 348 4/24/2021 9:47:55 PM Simplified Interconnected Solar Photovoltaic 4.06 kW 21 - 04 - A
APP4104 349 4/25/2021 7:56:56 PM Simplified Interconnected Solar Photovoltaic 11.60 kW 16 - 04 - C
APP4463 350 4/28/2021 1:31:47 PM Simplified Interconnected Solar Photovoltaic 10.00 kW 22 - 03 - C
APP4499 351 4/28/2021 3:34:40 PM Simplified Interconnected Solar Photovoltaic 12.10 kW 24 - 01 - A
APP4500 352 4/28/2021 8:24:32 PM Simplified Interconnected Solar Photovoltaic 6.00 kW 25 - 02 - C
APP4486 353 4/29/2021 7:05:39 AM Simplified Inspection and Testing Solar Photovoltaic 9.60 kW 16 - 03 - A
APP4504 354 4/29/2021 8:59:46 AM Simplified Inspection and Testing Solar Photovoltaic 3.80 kW 6 - 01 - C
APP4432 355 4/29/2021 11:02:06 AM Simplified DER Installation and Interconnection Solar Photovoltaic 5.00 kW 25 - 01 - B
APP4501 356 4/29/2021 3:36:56 PM Simplified Interconnected Solar Photovoltaic 13.15 kW 27 - 04 - C
APP4443 357 4/29/2021 4:31:24 PM Simplified Inspection and Testing Solar Photovoltaic 5.00 kW 11 - 11 - B
APP4508 358 4/29/2021 10:29:04 PM Simplified Interconnected Solar Photovoltaic 16.75 kW 7 - 04 - C
APP4518 359 5/5/2021 6:06:30 PM Simplified Interconnected Solar Photovoltaic 4.93 kW 8 - 03 - C
APP4535 360 5/6/2021 6:26:38 PM Simplified Facilities Construction Solar Photovoltaic 11.40 kW 27 - 04 - A
APP4523 361 5/6/2021 10:11:00 PM Simplified Interconnected Solar Photovoltaic 39.80 kW 18 - 01 - B
APP4538 362 5/7/2021 12:34:15 PM Simplified Facilities Construction Solar Photovoltaic 17.60 kW 25 - 06 - C
APP4435 363 5/7/2021 4:50:56 PM Simplified Inspection and Testing Solar Photovoltaic 4.80 kW 10 - 03 - B
APP4533 364 5/8/2021 5:29:33 PM Simplified Interconnected Solar Photovoltaic 5.00 kW 9 - 03 - A
APP4540 365 5/9/2021 11:52:06 AM Simplified Interconnected Solar Photovoltaic 6.96 kW 12 - 05 - C
APP4503 366 5/10/2021 11:32:41 AM Simplified Facilities Construction Solar Photovoltaic 7.60 kW 6 - 03 - B
APP4485 367 5/10/2021 2:34:04 PM Simplified Interconnected Solar Photovoltaic 6.38 kW 29 - 03 - B
APP4546 368 5/10/2021 2:47:29 PM Simplified Interconnected Solar Photovoltaic 8.02 kW 22 - 04 - A
APP4551 369 5/11/2021 1:33:36 PM Simplified Interconnected Solar Photovoltaic 3.48 kW 12 - 02 - A
APP4522 370 5/12/2021 9:12:00 AM Simplified Interconnected Solar Photovoltaic 5.22 kW 5 - 01 - A
APP4579 371 5/18/2021 4:00:59 PM Simplified Interconnected Solar Photovoltaic 7.60 kW 22 - 06 - B
APP4470 372 5/18/2021 8:49:05 PM Simplified DER Installation and Interconnection Solar Photovoltaic 7.60 kW 13 - 01 - C
APP4584 373 5/20/2021 10:49:27 AM Simplified Interconnected Solar Photovoltaic 6.25 kW 25 - 03 - B
APP4593 374 5/24/2021 11:35:32 AM Simplified Interconnected Solar Photovoltaic 5.39 kW 11 - 04 - C
APP4594 375 5/24/2021 3:43:43 PM Simplified Interconnected Solar Photovoltaic 7.60 kW 6 - 04 - C
APP4574 376 5/27/2021 11:18:09 AM Simplified Interconnected Solar Photovoltaic 6.09 kW 25 - 04 - C
APP4627 377 6/1/2021 6:19:33 AM Simplified Interconnected Solar Photovoltaic 4.08 kW 11 - 11 - B
APP4626 378 6/1/2021 10:13:16 AM Simplified Interconnected Solar Photovoltaic 8.90 kW 16 - 02 - B
APP4422 379 6/1/2021 2:29:47 PM Simplified Interconnected Solar Photovoltaic 5.48 kW 12 - 05 - A
APP4631 380 6/1/2021 4:41:22 PM Simplified Facilities Construction Solar Photovoltaic 7.60 kW 22 - 06 - B
APP4526 381 6/1/2021 4:54:02 PM Simplified Interconnected Solar Photovoltaic 10.15 kW 16 - 05 - A
APP4632 382 6/1/2021 6:50:35 PM Simplified Facilities Construction Solar Photovoltaic 5.00 kW 11 - 09 - A
APP4625 383 6/1/2021 8:41:02 PM Simplified Interconnected Solar Photovoltaic 4.38 kW 25 - 01 - A
APP4640 384 6/3/2021 12:24:35 PM Simplified Interconnected Solar Photovoltaic 8.22 kW 24 - 01 - B
APP4642 385 6/3/2021 1:25:52 PM Simplified Interconnected Solar Photovoltaic 10.41 kW 25 - 03 - B
APP4643 386 6/3/2021 1:38:14 PM Simplified Interconnected Solar Photovoltaic 5.48 kW 25 - 02 - B
APP4644 387 6/3/2021 3:01:00 PM Simplified Interconnected Solar Photovoltaic 4.38 kW 25 - 01 - A
APP4623 388 6/3/2021 10:40:39 PM Simplified Interconnected Solar Photovoltaic 8.70 kW 5 - 05 - A
APP4641 389 6/4/2021 9:24:57 AM Simplified Interconnected Solar Photovoltaic 6.03 kW 25 - 01 - B
APP4661 390 6/8/2021 2:15:14 PM Simplified Interconnected Solar Photovoltaic 8.70 kW 13 - 06 - B
APP4657 391 6/8/2021 9:09:50 PM Simplified Interconnected Solar Photovoltaic 8.37 kW 20 - 04 - A
APP4662 392 6/8/2021 11:25:10 PM Simplified Inspection and Testing Solar Photovoltaic 4.66 kW 5 - 01 - B
APP4299 393 6/9/2021 7:45:12 AM Simplified Interconnected Solar Photovoltaic 7.20 kW 12 - 02 - A
APP4671 394 6/10/2021 10:52:54 AM Simplified Interconnected Solar Photovoltaic 9.32 kW 25 - 03 - A
APP4652 395 6/10/2021 12:24:25 PM Simplified Interconnected Solar Photovoltaic 5.48 kW 24 - 06 - C
APP4675 396 6/10/2021 3:16:45 PM Simplified Interconnected Solar Photovoltaic 4.93 kW 22 - 04 - A
APP4668 397 6/10/2021 4:31:43 PM Simplified Interconnected Solar Photovoltaic 11.02 kW 19 - 05 - B
APP4647 398 6/11/2021 2:38:21 PM Simplified Pending Contract (Customer) Solar Photovoltaic 10.00 kW 9 - 05 - A
APP4672 399 6/11/2021 3:54:15 PM Simplified Interconnected Solar Photovoltaic 13.92 kW 8 - 06 - B
APP4709 400 6/17/2021 12:15:17 PM Simplified Facilities Construction Solar Photovoltaic 8.02 kW 8 - 01 - C
APP4714 401 6/18/2021 10:41:07 AM Simplified Interconnected Solar Photovoltaic 18.12 kW 21 - 06 - A
APP4711 402 6/19/2021 8:01:10 PM Simplified Inspection and Testing Solar Photovoltaic 7.60 kW 21 - 06 - C
APP4705 403 6/21/2021 9:18:49 AM Simplified Interconnected Solar Photovoltaic 4.93 kW 6 - 05 - B
APP4716 404 6/21/2021 10:35:36 AM Simplified Interconnected Solar Photovoltaic 4.06 kW 19 - 01 - A
APP4695 405 6/22/2021 3:36:40 PM Simplified Facilities Construction Solar Photovoltaic 9.28 kW 11 - 08 - A
APP4721 406 6/23/2021 7:00:35 AM Simplified Interconnected Solar Photovoltaic 11.89 kW 17 - 04 - B
APP4699 407 6/23/2021 7:46:01 AM Simplified Interconnected Solar Photovoltaic 7.03 kW 19 - 01 - C
APP4723 408 6/24/2021 3:47:45 PM Simplified Interconnected Solar Photovoltaic 12.00 kW 4 - 04 - B
APP4740 409 6/25/2021 2:06:06 PM Simplified Interconnected Solar Photovoltaic 8.37 kW 6 - 01 - A
APP4739 410 6/25/2021 3:17:19 PM Simplified Interconnected Solar Photovoltaic 8.70 kW 5 - 11 - B
APP4692 411 6/28/2021 6:07:08 PM Simplified Interconnected Solar Photovoltaic 13.12 kW 13 - 06 - A
APP4720 412 6/29/2021 11:04:05 AM Simplified Interconnected Solar Photovoltaic 7.25 kW 8 - 03 - B
APP4733 413 6/29/2021 1:42:55 PM Simplified Interconnected Solar Photovoltaic 7.54 kW 12 - 05 - B
APP4749 414 6/30/2021 7:48:58 AM Simplified Interconnected Solar Photovoltaic 17.01 kW 32 - 04 - B
APP4752 415 7/1/2021 1:04:54 PM Simplified Facilities Construction Solar Photovoltaic 5.00 kW 3 - 04 - A
APP4525 416 7/1/2021 6:13:37 PM Simplified Facilities Construction Solar Photovoltaic 11.61 kW 23 - 01 - B
APP4761 417 7/1/2021 8:56:14 PM Simplified Interconnected Solar Photovoltaic 6.96 kW 11 - 08 - A
APP4747 418 7/2/2021 12:43:26 PM Simplified Interconnected Solar Photovoltaic 7.60 kW 16 - 01 - B
APP4696 419 7/2/2021 2:39:35 PM Simplified Interconnected Solar Photovoltaic 6.02 kW 5 - 02 - B
APP4782 420 7/8/2021 1:18:43 PM Simplified Facilities Construction Solar Photovoltaic 10.81 kW 23 - 02 - B
APP4784 421 7/8/2021 3:21:38 PM Simplified Facilities Construction Solar Photovoltaic 7.67 kW 12 - 01 - A
APP4713 422 7/8/2021 4:46:47 PM Simplified Interconnected Solar Photovoltaic 4.64 kW 16 - 01 - B
APP4790 423 7/9/2021 3:22:52 PM Simplified Inspection and Testing Solar Photovoltaic 7.38 kW 27 - 04 - B
APP4792 424 7/12/2021 1:42:06 PM Simplified Interconnected Solar Photovoltaic 5.22 kW 16 - 03 - A
APP4629 425 7/12/2021 1:45:45 PM Simplified Pending Contract (Customer) Solar Photovoltaic 7.60 kW 25 - 01 - C
APP4773 426 7/12/2021 4:06:07 PM Fast Track Interconnected Solar Photovoltaic 39.00 kW 4 - 01 - C
APP4775 427 7/12/2021 6:05:41 PM Simplified Interconnected Solar Photovoltaic 5.22 kW 11 - 08 - B
APP4814 428 7/15/2021 7:53:08 AM Simplified Interconnected Solar Photovoltaic 7.67 kW 17 - 01 - C
APP4811 429 7/15/2021 9:10:32 AM Simplified Facilities Construction Solar Photovoltaic 9.07 kW 22 - 04 - B
APP4815 430 7/15/2021 3:50:49 PM Fast Track Pending Engineer Review Natural Gas Stand-by Generator 400.00 kW 13 - 09 - ABC
APP4737 431 7/15/2021 7:26:27 PM Simplified Interconnected Solar Photovoltaic 4.64 kW 9 - 03 - B
APP4806 432 7/15/2021 10:51:53 PM Simplified Inspection and Testing Solar Photovoltaic 18.27 kW 3 - 02 - C
APP4808 433 7/16/2021 12:23:18 PM Simplified Interconnected Solar Photovoltaic 5.00 kW 6 - 01 - C
APP4809 434 7/20/2021 7:32:07 PM Simplified Inspection and Testing Solar Photovoltaic 5.23 kW 25 - 01 - B
APP4788 435 7/22/2021 11:18:53 AM Simplified Inspection and Testing Solar Photovoltaic 9.28 kW 11 - 09 - C
APP4762 436 7/26/2021 3:11:45 PM Simplified Interconnected Solar Photovoltaic 5.24 kW 5 - 03 - A
APP4859 437 7/27/2021 1:26:42 PM Simplified Pending Contract (Customer) Solar Photovoltaic 7.60 kW 11 - 11 - A
APP4730 438 7/28/2021 1:25:28 PM Simplified Interconnected Solar Photovoltaic 3.80 kW 25 - 05 - A
APP4854 439 7/29/2021 2:07:33 PM Simplified Inspection and Testing Solar Photovoltaic 6.09 kW 15 - 03 - A
APP4873 440 7/31/2021 7:47:25 AM Simplified Interconnected Solar Photovoltaic 10.00 kW 22 - 03 - C
APP4850 441 8/3/2021 10:59:31 AM Simplified Interconnected Solar Photovoltaic 4.93 kW 14 - 03 - A
APP4843 442 8/5/2021 10:49:14 AM Simplified Facilities Construction Solar Photovoltaic 15.20 kW 8 - 03 - A
APP4863 443 8/6/2021 6:28:02 PM Simplified Facilities Construction Solar Photovoltaic 6.09 kW 16 - 01 - C
APP4393 444 8/9/2021 12:24:28 PM Simplified Pending Contract (Customer) Solar Photovoltaic 10.44 kW 7 - 02 - A
APP4894 445 8/9/2021 8:57:26 PM Simplified Facilities Construction Solar Photovoltaic 11.02 kW 8 - 04 - B
APP4938 446 8/16/2021 4:55:55 PM Simplified Interconnected Solar Photovoltaic 6.03 kW 27 - 04 - C
APP4937 447 8/16/2021 5:25:08 PM Simplified Interconnected Solar Photovoltaic 10.41 kW 27 - 04 - A
APP4940 448 8/17/2021 2:42:06 PM Simplified Interconnected Solar Photovoltaic 6.03 kW 27 - 04 - A
APP4866 449 8/18/2021 9:25:40 AM Simplified Facilities Construction Solar Photovoltaic 6.00 kW 8 - 03 - C
APP4945 450 8/18/2021 10:02:19 AM Simplified Interconnected Solar Photovoltaic 4.35 kW 16 - 04 - A
APP4756 451 8/18/2021 10:24:44 AM Simplified Pending Contract (Customer) Solar Photovoltaic 5.00 kW 16 - 06 - A
APP4948 452 8/18/2021 2:20:46 PM Simplified Interconnected Solar Photovoltaic 10.41 kW 27 - 04 - B
APP4950 453 8/18/2021 5:31:38 PM Simplified Interconnected Solar Photovoltaic 8.37 kW 22 - 04 - A
APP4971 454 8/23/2021 11:08:21 AM Simplified Interconnected Solar Photovoltaic 9.86 kW 16 - 04 - A
APP4724 455 8/24/2021 10:33:33 AM Simplified Facilities Construction Solar Photovoltaic 11.40 kW 15 - 01 - C
APP4978 456 8/24/2021 5:37:54 PM Simplified Interconnected Solar Photovoltaic 5.22 kW 10 - 03 - B
APP4961 457 8/25/2021 6:21:31 PM Simplified Facilities Construction Solar Photovoltaic 7.60 kW 22 - 03 - B
APP4983 458 8/26/2021 6:44:55 AM Simplified Interconnected Solar Photovoltaic 9.86 kW 26 - 02 - C
APP4766 459 8/26/2021 11:05:18 AM Simplified Facilities Construction Solar Photovoltaic 5.00 kW 6 - 04 - C
APP4990 460 8/26/2021 2:13:52 PM Simplified Inspection and Testing Solar Photovoltaic 7.12 kW 26 - 02 - B
APP4992 461 8/26/2021 2:21:54 PM Simplified Interconnected Solar Photovoltaic 6.58 kW 22 - 06 - A
APP4991 462 8/26/2021 4:04:40 PM Simplified Interconnected Solar Photovoltaic 3.84 kW 22 - 06 - A
APP4993 463 8/26/2021 8:22:04 PM Simplified Interconnected Solar Photovoltaic 6.03 kW 22 - 06 - C
APP4988 464 8/27/2021 10:23:12 AM Simplified Interconnected Solar Photovoltaic 6.03 kW 27 - 04 - A
APP5002 465 8/27/2021 5:45:36 PM Simplified Interconnected Solar Photovoltaic 6.38 kW 11 - 08 - B
APP4997 466 8/27/2021 6:12:01 PM Simplified Interconnected Solar Photovoltaic 7.12 kW 22 - 03 - A
APP4987 467 8/28/2021 8:34:06 AM Simplified Interconnected Solar Photovoltaic 3.29 kW 22 - 03 - A
APP5013 468 8/30/2021 3:21:56 PM Simplified Facilities Construction Solar Photovoltaic 7.60 kW 25 - 03 - B
APP5016 469 8/30/2021 6:34:37 PM Simplified Interconnected Solar Photovoltaic 10.00 kW 10 - 03 - C
APP4995 470 8/30/2021 8:24:10 PM Simplified Interconnected Solar Photovoltaic 6.58 kW 17 - 02 - B
APP5020 471 8/31/2021 8:55:23 AM Simplified Facilities Construction Solar Photovoltaic 3.14 kW 11 - 04 - A
APP4915 472 8/31/2021 11:52:01 AM Simplified Interconnected Solar Photovoltaic 6.38 kW 9 - 01 - B
APP5027 473 8/31/2021 1:30:48 PM Simplified Interconnected Solar Photovoltaic 8.22 kW 25 - 03 - A
APP5025 474 8/31/2021 5:56:40 PM Simplified Interconnected Solar Photovoltaic 7.67 kW 25 - 04 - B
APP4929 475 8/31/2021 9:23:37 PM Simplified Facilities Construction Solar Photovoltaic 6.00 kW 9 - 05 - A
APP5030 476 9/1/2021 12:12:45 PM Simplified Interconnected Solar Photovoltaic 8.77 kW 11 - 11 - A
APP5033 477 9/1/2021 6:48:16 PM Simplified Interconnected Solar Photovoltaic 3.84 kW 26 - 02 - B
APP4994 478 9/1/2021 8:05:25 PM Simplified Interconnected Solar Photovoltaic 12.60 kW 22 - 06 - A
APP5031 479 9/1/2021 11:02:15 PM Simplified Inspection and Testing Solar Photovoltaic 7.12 kW 25 - 04 - C
APP4764 480 9/2/2021 8:35:05 AM Simplified Facilities Construction Solar Photovoltaic 7.60 kW 19 - 04 - B
APP4916 481 9/2/2021 12:17:59 PM Simplified Interconnected Solar Photovoltaic 8.72 kW 5 - 11 - A
APP4980 482 9/2/2021 4:51:20 PM Simplified Facilities Construction Solar Photovoltaic 7.60 kW 5 - 11 - B
APP5032 483 9/3/2021 8:21:59 AM Simplified Interconnected Solar Photovoltaic 8.77 kW 26 - 02 - B
APP5043 484 9/3/2021 8:47:02 AM Simplified Inspection and Testing Solar Photovoltaic 9.32 kW 22 - 05 - C
APP5053 485 9/3/2021 12:55:43 PM Simplified Facilities Construction Solar Photovoltaic 13.05 kW 17 - 03 - B
APP5037 486 9/3/2021 2:13:21 PM Simplified Inspection and Testing Solar Photovoltaic 13.70 kW 24 - 01 - B
APP5040 487 9/3/2021 4:18:56 PM Simplified Facilities Construction Solar Photovoltaic 5.58 kW 5 - 11 - B
APP5044 488 9/3/2021 10:34:02 PM Simplified Inspection and Testing Solar Photovoltaic 13.15 kW 22 - 03 - C
APP5046 489 9/5/2021 12:41:27 PM Simplified Inspection and Testing Solar Photovoltaic 7.67 kW 22 - 01 - C
APP5050 490 9/7/2021 10:07:10 AM Simplified Facilities Construction Solar Photovoltaic 11.51 kW 22 - 06 - B
APP5042 491 9/7/2021 8:59:41 PM Simplified Inspection and Testing Solar Photovoltaic 7.12 kW 11 - 11 - A
APP5067 492 9/8/2021 1:53:22 PM Simplified Interconnected Solar Photovoltaic 3.84 kW 22 - 04 - B
APP5069 493 9/8/2021 2:15:04 PM Simplified Interconnected Solar Photovoltaic 3.29 kW 22 - 04 - B
APP5065 494 9/8/2021 2:18:19 PM Simplified Inspection and Testing Solar Photovoltaic 9.86 kW 22 - 06 - A
APP5068 495 9/8/2021 2:36:53 PM Simplified Inspection and Testing Solar Photovoltaic 9.86 kW 26 - 02 - A
APP4956 496 9/8/2021 3:59:17 PM Simplified Facilities Construction Solar Photovoltaic 20.00 kW 9 - 05 - A
APP5070 497 9/8/2021 4:31:48 PM Simplified Inspection and Testing Solar Photovoltaic 3.29 kW 22 - 04 - B
APP5072 498 9/8/2021 5:28:37 PM Simplified Facilities Construction Solar Photovoltaic 6.58 kW 24 - 06 - C
APP5064 499 9/8/2021 7:04:17 PM Simplified Inspection and Testing Solar Photovoltaic 4.93 kW 25 - 05 - B
APP5063 500 9/9/2021 7:39:25 AM Simplified Inspection and Testing Solar Photovoltaic 6.03 kW 25 - 01 - C
APP5079 501 9/9/2021 7:17:43 PM Simplified Facilities Construction Solar Photovoltaic 4.38 kW 25 - 01 - C
APP5066 502 9/9/2021 8:21:29 PM Simplified Inspection and Testing Solar Photovoltaic 6.58 kW 11 - 11 - B
APP5077 503 9/9/2021 8:56:48 PM Simplified Inspection and Testing Solar Photovoltaic 7.67 kW 25 - 01 - C
APP5076 504 9/10/2021 11:34:05 AM Simplified Interconnected Solar Photovoltaic 6.38 kW 22 - 03 - B
APP5106 505 9/15/2021 1:06:46 PM Simplified Inspection and Testing Solar Photovoltaic 4.93 kW 24 - 06 - A
APP5104 506 9/15/2021 2:06:28 PM Simplified Interconnected Solar Photovoltaic 6.67 kW 11 - 09 - B
APP5107 507 9/15/2021 5:52:25 PM Simplified Inspection and Testing Solar Photovoltaic 8.22 kW 22 - 03 - C
APP5117 508 9/16/2021 5:58:49 PM Simplified Inspection and Testing Solar Photovoltaic 10.00 kW 24 - 01 - C
APP5100 509 9/17/2021 8:30:32 AM Simplified Inspection and Testing Solar Photovoltaic 10.12 kW 12 - 01 - B
APP5026 510 9/20/2021 9:22:47 AM Simplified Inspection and Testing Solar Photovoltaic 4.93 kW 26 - 02 - B
APP5095 511 9/20/2021 2:49:24 PM Simplified Interconnected Solar Photovoltaic 9.07 kW 27 - 04 - B
APP5131 512 9/21/2021 3:48:22 PM Simplified Inspection and Testing Solar Photovoltaic 8.22 kW 25 - 03 - C
APP5135 513 9/21/2021 4:21:22 PM Simplified Facilities Construction Solar Photovoltaic 3.29 kW 24 - 06 - B
APP5138 514 9/21/2021 6:13:27 PM Simplified Inspection and Testing Solar Photovoltaic 7.12 kW 22 - 02 - C
APP5137 515 9/21/2021 6:20:16 PM Simplified Inspection and Testing Solar Photovoltaic 8.22 kW 22 - 01 - A
APP5140 516 9/22/2021 10:32:44 AM Simplified Facilities Construction Solar Photovoltaic 5.80 kW 9 - 02 - C
APP5049 517 9/22/2021 1:38:01 PM Simplified Facilities Construction Solar Photovoltaic 10.00 kW 11 - 09 - A
APP5127 518 9/22/2021 5:06:23 PM Simplified Facilities Construction Solar Photovoltaic 20.00 kW 8 - 03 - B
APP5060 519 9/22/2021 9:24:01 PM Simplified Facilities Construction Solar Photovoltaic 10.00 kW 24 - 02 - B
APP5132 520 9/22/2021 9:43:19 PM Simplified Inspection and Testing Solar Photovoltaic 7.12 kW 22 - 06 - B
APP4977 521 9/23/2021 12:13:01 PM Simplified Facilities Construction Solar Photovoltaic 6.02 kW 25 - 01 - A
APP5128 522 9/23/2021 8:23:20 PM Simplified Interconnected Solar Photovoltaic 15.00 kW 27 - 04 - C
APP4930 523 9/24/2021 11:13:56 AM Simplified Pending Contract (Customer) Solar Photovoltaic 10.00 kW 12 - 04 - C
APP5139 524 9/24/2021 11:23:45 AM Simplified Inspection and Testing Solar Photovoltaic 10.73 kW 27 - 04 - C
APP5015 525 9/24/2021 12:04:10 PM Simplified Pending Initial Review Solar Photovoltaic 6.00 kW - -
APP5014 526 9/27/2021 8:51:32 AM Fast Track Facilities Construction Solar Photovoltaic 21.40 kW 7 - 03 - A
APP5136 527 9/28/2021 2:43:16 PM Simplified Facilities Construction Solar Photovoltaic 14.21 kW 16 - 06 - A
APP5105 528 9/28/2021 11:41:05 PM Simplified Inspection and Testing Solar Photovoltaic 7.12 kW 25 - 05 - A
APP5116 529 9/29/2021 8:15:26 AM Simplified Pending Contract (Customer) Solar Photovoltaic 20.00 kW 4 - 04 - C
APP5161 530 9/29/2021 10:46:00 AM Fast Track Facilities Construction Solar Photovoltaic 30.00 kW 15 - 04 - B
APP5171 531 9/29/2021 3:52:18 PM Simplified Facilities Construction Solar Photovoltaic 7.83 kW 16 - 03 - B
APP5179 532 10/1/2021 5:42:55 PM Simplified Inspection and Testing Solar Photovoltaic 7.67 kW 25 - 04 - C
APP5148 533 10/4/2021 5:35:08 PM Simplified Pending Contract (Customer) Solar Photovoltaic 6.96 kW 12 - 01 - A
APP5177 534 10/5/2021 9:03:54 AM Simplified Inspection and Testing Solar Photovoltaic 4.93 kW 22 - 06 - A
APP5147 535 10/6/2021 9:27:24 AM Simplified Pending Contract (Customer) Solar Photovoltaic 11.47 kW 25 - 06 - A
APP5206 536 10/7/2021 5:12:27 PM Simplified Inspection and Testing Solar Photovoltaic 5.48 kW 6 - 05 - B
APP5200 537 10/8/2021 12:46:54 PM Simplified Pending Contract (Customer) Solar Photovoltaic 5.80 kW 13 - 09 - B
APP5212 538 10/8/2021 2:29:46 PM Simplified Inspection and Testing Solar Photovoltaic 9.42 kW 6 - 05 - C
APP5199 539 10/11/2021 7:57:59 AM Simplified Facilities Construction Solar Photovoltaic 11.60 kW 12 - 02 - A
APP5228 540 10/12/2021 3:19:02 PM Simplified Facilities Construction Solar Photovoltaic 8.77 kW 16 - 02 - C
APP5227 541 10/12/2021 4:00:46 PM Simplified Facilities Construction Solar Photovoltaic 7.67 kW 5 - 03 - A
APP5226 542 10/13/2021 3:56:55 PM Simplified Inspection and Testing Solar Photovoltaic 3.29 kW 5 - 02 - C
APP5223 543 10/13/2021 8:27:55 PM Simplified Facilities Construction Solar Photovoltaic 7.67 kW 11 - 10 - B
APP5235 544 10/14/2021 11:12:56 AM Simplified Inspection and Testing Solar Photovoltaic 10.00 kW 12 - 02 - A
APP5238 545 10/14/2021 5:29:39 PM Simplified Facilities Construction Solar Photovoltaic 10.41 kW 11 - 08 - B
APP5237 546 10/15/2021 7:04:52 AM Simplified Facilities Construction Solar Photovoltaic 6.58 kW 11 - 08 - A
APP5187 547 10/15/2021 10:01:06 AM Fast Track Pending Contract (Customer) Solar Photovoltaic 38.40 kW 4 - 04 - C
APP4735 548 10/15/2021 10:50:24 AM Simplified Inspection and Testing Solar Photovoltaic 11.02 kW 6 - 02 - A
APP4758 549 10/17/2021 5:14:50 PM Simplified Facilities Construction Solar Photovoltaic 4.93 kW 5 - 11 - B
APP5244 550 10/19/2021 6:40:43 AM Simplified Facilities Construction Solar Photovoltaic 6.03 kW 22 - 04 - A
APP4946 551 10/19/2021 11:24:10 AM Fast Track Pending Contract (Customer) Solar Photovoltaic 40.00 kW 18 - 01 - ABC
APP5048 552 10/19/2021 5:53:26 PM Simplified Facilities Construction Solar Photovoltaic 9.31 kW 8 - 01 - C
APP5249 553 10/19/2021 8:17:20 PM Simplified Facilities Construction Solar Photovoltaic 7.54 kW 11 - 01 - B
APP5256 554 10/20/2021 12:33:46 PM Simplified Facilities Construction Solar Photovoltaic 8.12 kW 16 - 04 - B
APP5258 555 10/20/2021 2:15:10 PM Simplified Pending Contract (Customer) Solar Photovoltaic 6.03 kW 5 - 02 - C
APP5259 556 10/20/2021 11:04:49 PM Simplified Pending Contract (Customer) Solar Photovoltaic 14.30 kW 22 - 06 - C
APP5261 557 10/21/2021 3:14:27 PM Simplified Facilities Construction Solar Photovoltaic 8.99 kW 5 - 03 - B
APP5257 558 10/22/2021 2:12:31 PM Simplified Facilities Construction Solar Photovoltaic 4.93 kW 16 - 03 - C
APP5209 559 10/22/2021 5:34:30 PM Simplified Facilities Construction Solar Photovoltaic 15.66 kW 11 - 04 - A
APP5271 560 10/25/2021 12:47:01 PM Simplified Facilities Construction Solar Photovoltaic 8.77 kW 25 - 05 - C
APP5275 561 10/26/2021 12:03:22 PM Simplified Pending Contract (Customer) Solar Photovoltaic 12.55 kW 22 - 01 - A
APP5124 562 10/26/2021 2:12:24 PM Simplified Pending Contract (Customer) Solar Photovoltaic 8.85 kW 9 - 02 - C
APP5280 563 10/26/2021 7:33:22 PM Simplified Facilities Construction Solar Photovoltaic 6.38 kW 24 - 06 - C
APP5272 564 10/26/2021 9:06:06 PM Simplified Facilities Construction Solar Photovoltaic 4.64 kW 22 - 04 - A
APP5278 565 10/27/2021 8:20:02 AM Simplified Facilities Construction Solar Photovoltaic 5.22 kW 6 - 04 - B
APP5276 566 10/27/2021 5:52:02 PM Simplified Facilities Construction Solar Photovoltaic 8.37 kW 12 - 04 - A
APP5297 567 11/1/2021 11:01:22 AM Simplified Facilities Construction Solar Photovoltaic 7.83 kW 22 - 04 - C
APP5041 568 11/1/2021 5:09:08 PM Simplified Facilities Construction Solar Photovoltaic 7.60 kW 3 - 03 - A
APP5247 569 11/1/2021 9:10:35 PM Simplified Pending Initial Review Solar Photovoltaic 3.80 kW - -
APP5298 570 11/3/2021 11:49:22 AM Simplified Pending Contract (Customer) Solar Photovoltaic 4.64 kW 11 - 10 - C
APP5193 571 11/3/2021 5:43:04 PM Simplified Pending Contract (Customer) Solar Photovoltaic 5.00 kW 7 - 05 - B
APP5312 572 11/4/2021 11:59:15 AM Simplified Facilities Construction Solar Photovoltaic 8.37 kW 22 - 04 - B
APP5216 573 11/4/2021 2:17:49 PM Simplified Facilities Construction Solar Photovoltaic 11.40 kW 31 - 03 - C
APP5315 574 11/5/2021 9:38:49 AM Simplified Facilities Construction Solar Photovoltaic 11.89 kW 16 - 04 - A
APP5314 575 11/5/2021 12:30:35 PM Simplified Pending Contract (Customer) Solar Photovoltaic 3.80 kW 11 - 09 - A
APP4927 576 11/5/2021 3:38:57 PM Simplified Pending Initial Review Solar Photovoltaic 3.20 kW - -
APP5316 577 11/5/2021 6:23:29 PM Simplified Facilities Construction Solar Photovoltaic 14.65 kW 12 - 02 - B
APP5313 578 11/8/2021 9:05:14 AM Simplified Facilities Construction Solar Photovoltaic 18.22 kW 17 - 02 - B
APP5313 579 11/8/2021 9:05:14 AM Simplified Facilities Construction Solar Photovoltaic 18.22 kW 17 - 02 - B
APP4669 580 11/9/2021 9:50:55 AM Simplified Pending Contract (Utility) Solar Photovoltaic 15.00 kW 24 - 02 - A
APP5270 581 11/10/2021 11:28:07 AM Simplified Pending Engineer Review Solar Photovoltaic 11.40 kW 19 - 04 - B
APP5333 582 11/11/2021 5:04:04 PM Simplified Pending Contract (Customer) Solar Photovoltaic 4.35 kW 19 - 05 - C
APP5335 583 11/12/2021 7:16:54 AM Simplified Pending Contract (Customer) Solar Photovoltaic 10.00 kW 22 - 03 - C
APP5348 584 11/15/2021 10:01:12 PM Fast Track Pending Contract Solar Photovoltaic 8.70 kW 5 - 01 - B
APP5343 585 11/17/2021 3:00:37 PM Simplified Pending Engineer Review Solar Photovoltaic 13.92 kW 4 - 04 - C
APP5350 586 11/17/2021 5:00:18 PM Simplified Pending Engineer Review Solar Photovoltaic 6.38 kW 3 - 01 - C
APP5361 587 11/19/2021 4:27:42 PM Simplified Pending Engineer Review Solar Photovoltaic 4.38 kW 25 - 03 - B
APP5366 588 11/24/2021 4:09:12 PM Simplified Pending Initial Review Solar Photovoltaic 6.80 kW - -
APP5370 589 11/29/2021 5:55:53 PM Simplified Pending Engineer Review Solar Photovoltaic 10.73 kW 22 - 06 - C
APP5373 590 11/30/2021 12:59:17 PM Simplified Pending Initial Review Solar Photovoltaic 8.12 kW - -
APP5375 591 11/30/2021 1:52:18 PM Simplified Pending Initial Review Solar Photovoltaic 11.02 kW - -
APP5364 592 11/30/2021 7:10:53 PM Simplified Pending Initial Review Solar Photovoltaic 5.60 kW - -
APP5354 593 12/1/2021 8:45:58 AM Simplified Pending Initial Review Solar Photovoltaic 4.38 kW - -

 

 

  © 2021 - Application developed and maintained by STAR Energy Services LLC